"SCET";"TARGET";"ELECTRON_DENSITY";"ERROR_FLAG";"ELECTRON_DENSITY_ERROR";"FREQ_FCE";"MEASURED_VALUE";"MEASURED_ITEM";"FREQ_PLASMA";"FREQ_UPPER_HYBRID";"FREQ_R_EQUALS_ZERO";"FREQ_L_EQUALS_ZERO";"ORBIT_NUMBER";"SATURN_RADIUS";"SATURN_IAU_LONGITUDE";"SATURN_SLS4_S_LONGITUDE";"SATURN_SLS4_N_LONGITUDE";"SATURN_SLS5_S_LONGITUDE";"SATURN_SLS5_N_LONGITUDE";"SATURN_LOCAL_TIME";"SATURN_KRONOGRAPHIC_LATITUDE";"SATURN_MAGNETIC_LATITUDE";"SATURN_L";"SATURN_L_OFFSET";"SATURN_SOLAR_EQUATORIAL_X";"SATURN_SOLAR_EQUATORIAL_Y";"SATURN_SOLAR_EQUATORIAL_Z";"SATURN_ALTITUDE";"ENCELADUS_ENCOUNTER_NUMBER";"ENCELADUS_RADIUS";"ENCELADUS_COROTATIONAL_X";"ENCELADUS_COROTATIONAL_Y";"ENCELADUS_COROTATIONAL_Z";"ENCELADUS_TRUE_ANOMALY";"ENCELADUS_PERIAPSIS_TIME";"JUPITER_RADIUS";"JUPITER_SYSTEMIII_LONGITUDE";"JUPITER_MAGNETIC_LATITUDE";"JUPITER_MAGNETIC_LOCAL_TIME";"JUPITER_L";"IO_PHASE";"EARTH_RADIUS";"EARTH_MAGNETIC_LATITUDE";"EARTH_LOCAL_TIME";"EARTH_L"
"[UTC]";"[0=Saturn, 1=Enceladus, 2=Jupiter, 3=Earth]";"[cm-3]";"[0=automated, 1=manual]";"[normalized density error]";"[Hz]";"[Hz]";"[0=upper hybrid frequency, 1=plasma frequency cutoff]";"[Hz]";"[Hz]";"[Hz]";"[Hz}";"[0, A, B, C, 3, 4, ... , 292, 293]";"[Rs where 1Rs=60268km]";"[degrees]";"[degrees]";"[degrees]";"[degrees]";"[degrees]";"[hours]";"[degrees]";"[degrees where offset=2293km north]";"[Rs where 1Rs=60268km]";"[Rs where 1Rs=60268km and offset=2293km north]";"[Rs where 1Rs=60268km]";"[Rs where 1Rs=60268km]";"[Rs where 1Rs=60268km]";"[km where ellipsoid a,b=60268km and c=54364km]";"[E0, E1, E2, ... , E21, E22]";"[Renc where 1Renc=252.1km]";"[Renc where 1Renc=252.1km]";"[Renc where 1Renc=252.1km]";"[Renc where 1Renc=252.1km]";"[degrees]";"[UTC]";"[Rj where 1Rj=71492km]";"[degrees]";"[degrees using JRM09 model]";"[hours using JRM09 model]";"[Rj where 1Rj=71492km]";"[degrees]";"[Re where 1Re=6378.1366km]";"[degrees]";"[hours]";"[Re where 1Re=6378.1366km]"
2006-02-24T21:35:28.661Z;0;3.9290e+00;0;     0.132;   719.572;  17813.412; 0;  17798.873;  17813.412;  18162.295;  17442.723; 21;   9.184; 354.376; 303.482;; 305.218; 238.885;  11.283;  -0.368;  -0.605;   9.185;   9.175;   9.023;  -1.713;  -0.059;;;;;;;;;;;;;;;;;;
2006-02-24T21:36:00.661Z;0;3.8250e+00;0;     0.105;   718.956;  17577.596; 0;  17562.887;  17577.596;  17926.043;  17207.086; 21;   9.181; 354.647; 303.749;; 305.488; 239.160;  11.285;  -0.368;  -0.605;   9.181;   9.172;   9.020;  -1.708;  -0.059;;;;;;;;;;;;;;;;;;
2006-02-24T21:36:16.661Z;0;3.9360e+00;0;     0.158;   718.956;  17829.182; 0;  17814.680;  17829.182;  18177.785;  17458.828; 21;   9.179; 354.783; 303.883;; 305.623; 239.297;  11.286;  -0.368;  -0.605;   9.180;   9.170;   9.019;  -1.705;  -0.059;;;;;;;;;;;;;;;;;;
2006-02-24T21:36:32.661Z;0;3.8030e+00;0;     0.123;   718.956;  17527.980; 0;  17513.229;  17527.980;  17876.396;  17157.439; 21;   9.177; 354.919; 304.017;; 305.758; 239.435;  11.287;  -0.368;  -0.605;   9.178;   9.168;   9.018;  -1.702;  -0.059;;;;;;;;;;;;;;;;;;
2006-02-24T21:36:48.660Z;0;3.9050e+00;0;     0.158;   718.956;  17760.217; 0;  17745.658;  17760.217;  18108.777;  17389.822; 21;   9.176; 355.054; 304.150;; 305.893; 239.572;  11.288;  -0.368;  -0.605;   9.176;   9.167;   9.017;  -1.700;  -0.059;;;;;;;;;;;;;;;;;;
2006-02-24T21:37:04.660Z;0;3.7520e+00;0;     0.126;   708.988;  17409.926; 0;  17395.484;  17409.926;  17753.590;  17044.602; 21;   9.174; 355.190; 304.284;; 306.029; 239.710;  11.289;  -0.368;  -0.605;   9.174;   9.165;   9.015;  -1.697;  -0.059;;;;;;;;;;;;;;;;;;
2006-02-24T21:37:20.660Z;0;4.7610e+00;0;     0.151;   708.988;  19607.867; 0;  19595.045;  19607.867;  19952.746;  19243.758; 21;   9.172; 355.325; 304.417;; 306.164; 239.847;  11.290;  -0.368;  -0.605;   9.173;   9.163;   9.014;  -1.694;  -0.059;;;;;;;;;;;;;;;;;;
2006-02-24T21:37:36.660Z;0;4.8620e+00;0;     0.218;   708.988;  19812.586; 0;  19799.896;  19812.586;  20157.564;  19448.576; 21;   9.170; 355.461; 304.551;; 306.299; 239.985;  11.291;  -0.368;  -0.605;   9.171;   9.161;   9.013;  -1.692;  -0.059;;;;;;;;;;;;;;;;;;
2006-02-24T21:37:52.660Z;0;4.3450e+00;0;     0.195;   708.988;  18731.828; 0;  18718.406;  18731.828;  19076.256;  18367.268; 21;   9.169; 355.597; 304.685;; 306.435; 240.122;  11.292;  -0.368;  -0.605;   9.169;   9.160;   9.012;  -1.689;  -0.059;;;;;;;;;;;;;;;;;;
2006-02-24T21:38:08.660Z;0;3.8100e+00;0;     0.169;   716.856;  17543.256; 0;  17528.604;  17543.256;  17890.695;  17173.840; 21;   9.167; 355.732; 304.818;; 306.570; 240.259;  11.293;  -0.368;  -0.605;   9.167;   9.158;   9.010;  -1.687;  -0.059;;;;;;;;;;;;;;;;;;
2006-02-24T21:38:24.660Z;0;4.3020e+00;0;     0.179;   716.856;  18638.461; 0;  18624.670;  18638.461;  18986.547;  18269.691; 21;   9.165; 355.868; 304.952;; 306.706; 240.397;  11.294;  -0.368;  -0.605;   9.166;   9.156;   9.009;  -1.684;  -0.059;;;;;;;;;;;;;;;;;;
2006-02-24T21:38:40.660Z;0;3.6720e+00;0;     0.140;   716.856;  17221.689; 0;  17206.764;  17221.689;  17568.924;  16852.068; 21;   9.163; 356.003; 305.085;; 306.842; 240.534;  11.295;  -0.368;  -0.605;   9.164;   9.154;   9.008;  -1.681;  -0.059;;;;;;;;;;;;;;;;;;
2006-02-24T21:38:56.660Z;0;3.5510e+00;0;     0.165;   716.856;  16938.344; 0;  16923.168;  16938.344;  17285.391;  16568.535; 21;   9.162; 356.139; 305.219;; 306.978; 240.672;  11.296;  -0.368;  -0.605;   9.162;   9.153;   9.006;  -1.679;  -0.059;;;;;;;;;;;;;;;;;;
2006-02-24T21:39:28.659Z;0;3.9260e+00;0;     0.155;   710.416;  17807.994; 0;  17793.818;  17807.994;  18152.570;  17442.154; 21;   9.158; 356.410; 305.486;; 307.249; 240.947;  11.298;  -0.367;  -0.605;   9.159;   9.149;   9.004;  -1.674;  -0.059;;;;;;;;;;;;;;;;;;
2006-02-24T21:39:44.659Z;0;3.8900e+00;0;     0.169;   710.416;  17726.197; 0;  17711.955;  17726.197;  18070.725;  17360.309; 21;   9.157; 356.545; 305.620;; 307.385; 241.084;  11.299;  -0.367;  -0.605;   9.157;   9.147;   9.003;  -1.671;  -0.059;;;;;;;;;;;;;;;;;;
2006-02-24T21:40:00.659Z;0;3.7640e+00;0;     0.098;   716.772;  17437.625; 0;  17422.887;  17437.625;  17784.959;  17068.188; 21;   9.155; 356.681; 305.753;; 307.521; 241.221;  11.300;  -0.367;  -0.605;   9.155;   9.146;   9.001;  -1.668;  -0.059;;;;;;;;;;;;;;;;;;
2006-02-24T21:40:16.659Z;0;3.8470e+00;0;     0.123;   716.772;  17628.484; 0;  17613.906;  17628.484;  17975.938;  17259.166; 21;   9.153; 356.816; 305.887;; 307.656; 241.357;  11.301;  -0.367;  -0.606;   9.153;   9.144;   9.000;  -1.666;  -0.059;;;;;;;;;;;;;;;;;;
2006-02-24T21:40:32.659Z;0;4.1390e+00;0;     0.205;   716.772;  18283.633; 0;  18269.578;  18283.633;  18631.479;  17914.707; 21;   9.151; 356.952; 306.020;; 307.791; 241.493;  11.302;  -0.367;  -0.606;   9.152;   9.142;   8.999;  -1.663;  -0.059;;;;;;;;;;;;;;;;;;
2006-02-24T21:40:48.659Z;0;3.6750e+00;0;     0.131;   716.772;  17229.316; 0;  17214.400;  17229.316;  17576.518;  16859.744; 21;   9.150; 357.087; 306.154;; 307.925; 241.629;  11.303;  -0.367;  -0.606;   9.150;   9.140;   8.997;  -1.660;  -0.059;;;;;;;;;;;;;;;;;;
2006-02-24T21:41:04.659Z;0;3.7290e+00;0;     0.135;   717.696;  17355.719; 0;  17340.873;  17355.719;  17703.434;  16985.738; 21;   9.148; 357.223; 306.287;; 308.060; 241.765;  11.304;  -0.367;  -0.606;   9.148;   9.139;   8.996;  -1.658;  -0.059;;;;;;;;;;;;;;;;;;
2006-02-24T21:41:20.659Z;0;3.6530e+00;0;     0.157;   717.696;  17177.768; 0;  17162.768;  17177.768;  17525.367;  16807.672; 21;   9.146; 357.358; 306.421;; 308.195; 241.901;  11.305;  -0.367;  -0.606;   9.146;   9.137;   8.995;  -1.655;  -0.059;;;;;;;;;;;;;;;;;;
2006-02-24T21:41:36.659Z;0;3.7170e+00;0;     0.139;   717.696;  17329.033; 0;  17314.164;  17329.033;  17676.730;  16959.035; 21;   9.144; 357.494; 306.554;; 308.329; 242.036;  11.306;  -0.367;  -0.606;   9.145;   9.135;   8.994;  -1.653;  -0.059;;;;;;;;;;;;;;;;;;
2006-02-24T21:41:52.659Z;0;3.6820e+00;0;     0.146;   717.696;  17247.117; 0;  17232.178;  17247.117;  17594.762;  16877.066; 21;   9.143; 357.629; 306.688;; 308.464; 242.172;  11.307;  -0.367;  -0.606;   9.143;   9.134;   8.992;  -1.650;  -0.059;;;;;;;;;;;;;;;;;;
2006-02-24T21:42:24.658Z;0;2.7040e+00;0;     0.084;   723.380;  14783.642; 0;  14765.933;  14783.642;  15132.052;  14408.672; 21;   9.139; 357.900; 306.955;; 308.733; 242.443;  11.309;  -0.367;  -0.606;   9.140;   9.130;   8.990;  -1.645;  -0.059;;;;;;;;;;;;;;;;;;
2006-02-24T21:42:40.658Z;0;2.7360e+00;0;     0.074;   723.380;  14872.317; 0;  14854.715;  14872.317;  15220.808;  14497.428; 21;   9.137; 358.036; 307.088;; 308.868; 242.578;  11.310;  -0.367;  -0.606;   9.138;   9.128;   8.988;  -1.642;  -0.059;;;;;;;;;;;;;;;;;;
2006-02-24T21:42:56.658Z;0;2.8770e+00;0;     0.079;   723.380;  15248.604; 0;  15231.436;  15248.604;  15597.419;  14874.039; 21;   9.136; 358.171; 307.222;; 309.003; 242.713;  11.311;  -0.367;  -0.606;   9.136;   9.127;   8.987;  -1.640;  -0.059;;;;;;;;;;;;;;;;;;
2006-02-24T21:43:12.658Z;0;3.6730e+00;0;     0.123;   721.560;  17224.395; 0;  17209.273;  17224.395;  17573.836;  16852.275; 21;   9.134; 358.307; 307.355;; 309.137; 242.848;  11.312;  -0.367;  -0.606;   9.134;   9.125;   8.986;  -1.637;  -0.059;;;;;;;;;;;;;;;;;;
2006-02-24T21:43:28.658Z;0;3.7260e+00;0;     0.129;   721.560;  17348.846; 0;  17333.834;  17348.846;  17698.367;  16976.809; 21;   9.132; 358.442; 307.489;; 309.272; 242.983;  11.313;  -0.367;  -0.606;   9.133;   9.123;   8.985;  -1.634;  -0.059;;;;;;;;;;;;;;;;;;
2006-02-24T21:43:44.658Z;0;3.6740e+00;0;     0.154;   721.560;  17227.830; 0;  17212.713;  17227.830;  17577.273;  16855.713; 21;   9.130; 358.578; 307.622;; 309.407; 243.118;  11.314;  -0.367;  -0.606;   9.131;   9.121;   8.983;  -1.632;  -0.058;;;;;;;;;;;;;;;;;;
2006-02-24T21:44:00.658Z;0;3.7500e+00;0;     0.150;   718.144;  17404.820; 0;  17389.998;  17404.820;  17752.777;  17034.633; 21;   9.129; 358.713; 307.756;; 309.541; 243.253;  11.315;  -0.367;  -0.606;   9.129;   9.120;   8.982;  -1.629;  -0.058;;;;;;;;;;;;;;;;;;
2006-02-24T21:44:16.658Z;0;3.7280e+00;0;     0.133;   718.144;  17353.037; 0;  17338.170;  17353.037;  17700.961;  16982.816; 21;   9.127; 358.848; 307.889;; 309.676; 243.388;  11.316;  -0.367;  -0.606;   9.127;   9.118;   8.981;  -1.626;  -0.058;;;;;;;;;;;;;;;;;;
2006-02-24T21:44:32.658Z;0;3.0940e+00;0;     0.152;   718.144;  15811.474; 0;  15795.156;  15811.474;  16158.310;  15440.165; 21;   9.125; 358.984; 308.023;; 309.811; 243.523;  11.317;  -0.367;  -0.606;   9.126;   9.116;   8.979;  -1.624;  -0.058;;;;;;;;;;;;;;;;;;
2006-02-24T21:44:48.657Z;0;3.7150e+00;0;     0.124;   718.144;  17323.145; 0;  17308.252;  17323.145;  17671.049;  16952.904; 21;   9.123; 359.119; 308.156;; 309.945; 243.658;  11.317;  -0.367;  -0.606;   9.124;   9.114;   8.978;  -1.621;  -0.058;;;;;;;;;;;;;;;;;;
2006-02-24T21:45:04.657Z;0;3.6240e+00;0;     0.135;   719.068;  17109.318; 0;  17094.201;  17109.318;  17457.516;  16738.447; 21;   9.122; 359.255; 308.289;; 310.080; 243.792;  11.318;  -0.367;  -0.606;   9.122;   9.113;   8.977;  -1.619;  -0.058;;;;;;;;;;;;;;;;;;
2006-02-24T21:45:20.657Z;0;3.6540e+00;0;     0.119;   719.068;  17179.963; 0;  17164.908;  17179.963;  17528.207;  16809.139; 21;   9.120; 359.390; 308.423;; 310.214; 243.927;  11.319;  -0.367;  -0.606;   9.120;   9.111;   8.975;  -1.616;  -0.058;;;;;;;;;;;;;;;;;;
2006-02-24T21:45:36.657Z;0;2.5330e+00;0;     0.099;   719.068;  14309.933; 0;  14291.854;  14309.933;  14655.910;  13936.843; 21;   9.118; 359.526; 308.556;; 310.349; 244.061;  11.320;  -0.367;  -0.606;   9.119;   9.109;   8.974;  -1.613;  -0.058;;;;;;;;;;;;;;;;;;
2006-02-24T21:45:52.657Z;0;2.4270e+00;0;     0.087;   719.068;  14008.479; 0;  13990.011;  14008.479;  14354.164;  13635.097; 21;   9.117; 359.661; 308.690;; 310.484; 244.196;  11.321;  -0.367;  -0.606;   9.117;   9.107;   8.973;  -1.611;  -0.058;;;;;;;;;;;;;;;;;;
2006-02-24T21:46:08.657Z;0;3.6900e+00;0;     0.124;   715.652;  17264.898; 0;  17250.061;  17264.898;  17611.596;  16895.945; 21;   9.115; 359.796; 308.823;; 310.618; 244.330;  11.322;  -0.367;  -0.606;   9.115;   9.106;   8.972;  -1.608;  -0.058;;;;;;;;;;;;;;;;;;
2006-02-24T21:46:24.657Z;0;3.4650e+00;0;     0.095;   715.652;  16732.336; 0;  16717.025;  16732.336;  17078.680;  16363.027; 21;   9.113; 359.932; 308.957;; 310.753; 244.464;  11.323;  -0.367;  -0.606;   9.113;   9.104;   8.970;  -1.606;  -0.058;;;;;;;;;;;;;;;;;;
2006-02-24T21:46:40.657Z;0;2.8950e+00;0;     0.104;   715.652;  15297.208; 0;  15280.459;  15297.208;  15642.474;  14926.821; 21;   9.111;   0.067; 309.090;; 310.887; 244.598;  11.324;  -0.367;  -0.606;   9.112;   9.102;   8.969;  -1.603;  -0.058;;;;;;;;;;;;;;;;;;
2006-02-24T21:46:56.657Z;0;3.3870e+00;0;     0.098;   715.652;  16541.119; 0;  16525.631;  16541.119;  16887.330;  16171.678; 21;   9.110;   0.203; 309.223;; 311.022; 244.733;  11.325;  -0.367;  -0.606;   9.110;   9.101;   8.968;  -1.600;  -0.058;;;;;;;;;;;;;;;;;;
2006-02-24T21:47:12.657Z;0;3.9160e+00;0;     0.184;   705.236;  17784.432; 0;  17770.443;  17784.432;  18126.559;  17421.324; 21;   9.108;   0.338; 309.357;; 311.157; 244.867;  11.326;  -0.367;  -0.606;   9.108;   9.099;   8.966;  -1.598;  -0.058;;;;;;;;;;;;;;;;;;
2006-02-24T21:47:28.656Z;0;3.8210e+00;0;     0.135;   705.236;  17568.281; 0;  17554.121;  17568.281;  17910.279;  17205.043; 21;   9.106;   0.473; 309.490;; 311.291; 245.001;  11.327;  -0.367;  -0.606;   9.106;   9.097;   8.965;  -1.595;  -0.058;;;;;;;;;;;;;;;;;;
2006-02-24T21:48:00.656Z;0;4.2550e+00;0;     0.201;   706.048;  18537.510; 0;  18524.059;  18537.510;  18880.447;  18174.398; 21;   9.103;   0.744; 309.757;; 311.560; 245.268;  11.329;  -0.367;  -0.606;   9.103;   9.094;   8.963;  -1.590;  -0.058;;;;;;;;;;;;;;;;;;
2006-02-24T21:48:16.656Z;0;3.8450e+00;0;     0.132;   706.048;  17622.070; 0;  17607.920;  17622.070;  17964.482;  17258.436; 21;   9.101;   0.879; 309.890;; 311.695; 245.402;  11.330;  -0.367;  -0.606;   9.101;   9.092;   8.961;  -1.587;  -0.058;;;;;;;;;;;;;;;;;;
2006-02-24T21:48:32.656Z;0;3.8500e+00;0;     0.147;   706.048;  17633.533; 0;  17619.393;  17633.533;  17975.953;  17269.904; 21;   9.099;   1.015; 310.024;; 311.829; 245.536;  11.331;  -0.367;  -0.606;   9.100;   9.090;   8.960;  -1.585;  -0.058;;;;;;;;;;;;;;;;;;
2006-02-24T21:48:48.656Z;0;3.8310e+00;0;     0.137;   706.048;  17590.199; 0;  17576.023;  17590.199;  17932.592;  17226.545; 21;   9.097;   1.150; 310.157;; 311.964; 245.669;  11.332;  -0.367;  -0.606;   9.098;   9.088;   8.959;  -1.582;  -0.058;;;;;;;;;;;;;;;;;;
2006-02-24T21:49:04.656Z;0;3.8920e+00;0;     0.149;   696.528;  17729.539; 0;  17715.852;  17729.539;  18067.539;  17371.010; 21;   9.096;   1.285; 310.290;; 312.098; 245.803;  11.333;  -0.367;  -0.606;   9.096;   9.087;   8.957;  -1.579;  -0.058;;;;;;;;;;;;;;;;;;
2006-02-24T21:49:20.656Z;0;3.8570e+00;0;     0.153;   696.528;  17650.330; 0;  17636.582;  17650.330;  17988.283;  17291.756; 21;   9.094;   1.421; 310.424;; 312.233; 245.936;  11.334;  -0.367;  -0.606;   9.094;   9.085;   8.956;  -1.577;  -0.058;;;;;;;;;;;;;;;;;;
2006-02-24T21:49:36.656Z;0;3.7710e+00;0;     0.113;   696.528;  17451.910; 0;  17438.006;  17451.910;  17789.746;  17093.219; 21;   9.092;   1.556; 310.557;; 312.367; 246.069;  11.335;  -0.367;  -0.606;   9.093;   9.083;   8.955;  -1.574;  -0.058;;;;;;;;;;;;;;;;;;
2006-02-24T21:49:52.655Z;0;3.7180e+00;0;     0.138;   696.528;  17328.920; 0;  17314.916;  17328.920;  17666.682;  16970.154; 21;   9.090;   1.691; 310.690;; 312.502; 246.203;  11.336;  -0.367;  -0.606;   9.091;   9.081;   8.953;  -1.572;  -0.058;;;;;;;;;;;;;;;;;;
2006-02-24T21:50:40.655Z;0;3.7640e+00;0;     0.129;   707.840;  17436.168; 0;  17421.795;  17436.168;  17779.309;  17071.469; 21;   9.085;   2.097; 311.090;; 312.902; 246.609;  11.339;  -0.366;  -0.606;   9.086;   9.076;   8.949;  -1.564;  -0.058;;;;;;;;;;;;;;;;;;
2006-02-24T21:50:56.655Z;0;4.1470e+00;0;     0.161;   707.840;  18300.934; 0;  18287.240;  18300.934;  18644.584;  17936.744; 21;   9.084;   2.233; 311.224;; 313.035; 246.745;  11.340;  -0.366;  -0.606;   9.084;   9.075;   8.948;  -1.561;  -0.058;;;;;;;;;;;;;;;;;;
2006-02-24T21:51:28.655Z;0;3.7490e+00;0;     0.152;   699.776;  17401.096; 0;  17387.020;  17401.096;  17740.428;  17040.652; 21;   9.080;   2.503; 311.490;; 313.300; 247.017;  11.342;  -0.366;  -0.606;   9.080;   9.071;   8.946;  -1.556;  -0.058;;;;;;;;;;;;;;;;;;
2006-02-24T21:51:44.655Z;0;3.6770e+00;0;     0.147;   699.776;  17234.621; 0;  17220.408;  17234.621;  17573.852;  16874.074; 21;   9.078;   2.638; 311.624;; 313.433; 247.154;  11.343;  -0.366;  -0.606;   9.079;   9.069;   8.944;  -1.553;  -0.058;;;;;;;;;;;;;;;;;;
2006-02-24T21:52:16.655Z;0;2.6480e+00;0;     0.080;   713.580;  14631.149; 0;  14613.738;  14631.149;  14974.883;  14261.303; 21;   9.075;   2.909; 311.890;; 313.698; 247.426;  11.345;  -0.366;  -0.606;   9.075;   9.066;   8.942;  -1.548;  -0.058;;;;;;;;;;;;;;;;;;
2006-02-24T21:52:32.654Z;0;3.8070e+00;0;     0.172;   713.580;  17535.369; 0;  17520.844;  17535.369;  17881.266;  17167.686; 21;   9.073;   3.044; 312.023;; 313.831; 247.563;  11.346;  -0.366;  -0.607;   9.073;   9.064;   8.940;  -1.545;  -0.058;;;;;;;;;;;;;;;;;;
2006-02-24T21:52:48.654Z;0;3.6590e+00;0;     0.126;   713.580;  17192.137; 0;  17177.322;  17192.137;  17537.816;  16824.236; 21;   9.071;   3.179; 312.157;; 313.963; 247.699;  11.347;  -0.366;  -0.607;   9.072;   9.062;   8.939;  -1.543;  -0.058;;;;;;;;;;;;;;;;;;
2006-02-24T21:53:04.654Z;0;4.0700e+00;0;     0.182;   714.392;  18130.982; 0;  18116.902;  18130.982;  18477.619;  17763.229; 21;   9.070;   3.315; 312.290;; 314.095; 247.836;  11.348;  -0.366;  -0.607;   9.070;   9.061;   8.938;  -1.540;  -0.058;;;;;;;;;;;;;;;;;;
2006-02-24T21:53:20.654Z;0;3.7980e+00;0;     0.154;   714.392;  17516.162; 0;  17501.588;  17516.162;  17862.428;  17148.037; 21;   9.068;   3.450; 312.423;; 314.228; 247.972;  11.349;  -0.366;  -0.607;   9.068;   9.059;   8.936;  -1.537;  -0.058;;;;;;;;;;;;;;;;;;
2006-02-24T21:53:36.654Z;0;3.6330e+00;0;     0.136;   714.392;  17131.062; 0;  17116.160;  17131.062;  17477.084;  16762.691; 21;   9.066;   3.585; 312.556;; 314.360; 248.109;  11.350;  -0.366;  -0.607;   9.067;   9.057;   8.935;  -1.535;  -0.058;;;;;;;;;;;;;;;;;;
2006-02-24T21:54:08.654Z;0;3.6600e+00;0;     0.123;   711.956;  17194.881; 0;  17180.135;  17194.881;  17539.801;  16827.846; 21;   9.063;   3.856; 312.823;; 314.624; 248.383;  11.352;  -0.366;  -0.607;   9.063;   9.054;   8.932;  -1.530;  -0.058;;;;;;;;;;;;;;;;;;
2006-02-24T21:54:24.654Z;0;3.6920e+00;0;     0.136;   711.956;  17269.777; 0;  17255.096;  17269.777;  17614.746;  16902.789; 21;   9.061;   3.991; 312.956;; 314.756; 248.520;  11.353;  -0.366;  -0.607;   9.061;   9.052;   8.931;  -1.527;  -0.058;;;;;;;;;;;;;;;;;;
2006-02-24T21:54:40.654Z;0;3.9380e+00;0;     0.157;   711.956;  17835.486; 0;  17821.271;  17835.486;  18180.803;  17468.848; 21;   9.059;   4.126; 313.089;; 314.888; 248.656;  11.354;  -0.366;  -0.607;   9.060;   9.050;   8.930;  -1.524;  -0.058;;;;;;;;;;;;;;;;;;
2006-02-24T21:54:56.654Z;0;3.8940e+00;0;     0.131;   711.956;  17735.604; 0;  17721.309;  17735.604;  18080.861;  17368.904; 21;   9.057;   4.261; 313.223;; 315.020; 248.794;  11.355;  -0.366;  -0.607;   9.058;   9.048;   8.929;  -1.522;  -0.058;;;;;;;;;;;;;;;;;;
2006-02-24T21:55:12.653Z;0;3.9430e+00;0;     0.168;   698.768;  17846.367; 0;  17832.682;  17846.367;  18185.488;  17486.721; 21;   9.056;   4.396; 313.356;; 315.151; 248.931;  11.356;  -0.366;  -0.607;   9.056;   9.047;   8.927;  -1.519;  -0.058;;;;;;;;;;;;;;;;;;
2006-02-24T21:55:28.653Z;0;3.7910e+00;0;     0.111;   698.768;  17498.156; 0;  17484.199;  17498.156;  17837.072;  17138.305; 21;   9.054;   4.532; 313.489;; 315.283; 249.068;  11.357;  -0.366;  -0.607;   9.054;   9.045;   8.926;  -1.517;  -0.058;;;;;;;;;;;;;;;;;;
2006-02-24T21:55:44.653Z;0;3.7890e+00;0;     0.108;   698.768;  17493.812; 0;  17479.852;  17493.812;  17832.727;  17133.959; 21;   9.052;   4.667; 313.622;; 315.415; 249.205;  11.358;  -0.366;  -0.607;   9.053;   9.043;   8.925;  -1.514;  -0.058;;;;;;;;;;;;;;;;;;
2006-02-24T21:56:00.653Z;0;3.7860e+00;0;     0.125;   702.156;  17487.773; 0;  17473.672;  17487.773;  17828.275;  17126.119; 21;   9.051;   4.802; 313.755;; 315.546; 249.342;  11.359;  -0.366;  -0.607;   9.051;   9.042;   8.923;  -1.511;  -0.058;;;;;;;;;;;;;;;;;;
2006-02-24T21:56:16.653Z;0;3.7990e+00;0;     0.121;   702.156;  17516.451; 0;  17502.373;  17516.451;  17856.971;  17154.814; 21;   9.049;   4.937; 313.889;; 315.677; 249.480;  11.360;  -0.366;  -0.607;   9.049;   9.040;   8.922;  -1.509;  -0.058;;;;;;;;;;;;;;;;;;
2006-02-24T21:56:32.653Z;0;3.7790e+00;0;     0.113;   702.156;  17471.500; 0;  17457.385;  17471.500;  17811.992;  17109.836; 21;   9.047;   5.072; 314.022;; 315.809; 249.617;  11.361;  -0.366;  -0.607;   9.047;   9.038;   8.921;  -1.506;  -0.058;;;;;;;;;;;;;;;;;;
2006-02-24T21:56:48.653Z;0;3.8610e+00;0;     0.132;   702.156;  17659.436; 0;  17645.471;  17659.436;  18000.041;  17297.885; 21;   9.045;   5.207; 314.155;; 315.940; 249.754;  11.362;  -0.366;  -0.607;   9.046;   9.036;   8.919;  -1.503;  -0.058;;;;;;;;;;;;;;;;;;
2006-02-24T21:57:04.653Z;0;3.7930e+00;0;     0.149;   704.424;  17503.402; 0;  17489.223;  17503.402;  17844.980;  17140.557; 21;   9.044;   5.343; 314.288;; 316.071; 249.892;  11.363;  -0.366;  -0.607;   9.044;   9.035;   8.918;  -1.501;  -0.058;;;;;;;;;;;;;;;;;;
2006-02-24T21:57:20.653Z;0;3.7550e+00;0;     0.134;   704.424;  17414.449; 0;  17400.195;  17414.449;  17755.973;  17051.549; 21;   9.042;   5.478; 314.421;; 316.202; 250.030;  11.364;  -0.366;  -0.607;   9.042;   9.033;   8.917;  -1.498;  -0.058;;;;;;;;;;;;;;;;;;
2006-02-24T21:57:36.653Z;0;3.7990e+00;0;     0.154;   704.424;  17516.836; 0;  17502.666;  17516.836;  17858.422;  17153.998; 21;   9.040;   5.613; 314.555;; 316.333; 250.167;  11.365;  -0.366;  -0.607;   9.041;   9.031;   8.915;  -1.496;  -0.058;;;;;;;;;;;;;;;;;;
2006-02-24T21:57:52.652Z;0;3.7290e+00;0;     0.140;   704.424;  17355.275; 0;  17340.975;  17355.275;  17696.762;  16992.338; 21;   9.038;   5.748; 314.688;; 316.464; 250.305;  11.366;  -0.366;  -0.607;   9.039;   9.029;   8.914;  -1.493;  -0.058;;;;;;;;;;;;;;;;;;
2006-02-24T21:58:08.652Z;0;3.7190e+00;0;     0.163;   706.244;  17331.674; 0;  17317.279;  17331.674;  17674.000;  16967.756; 21;   9.037;   5.883; 314.821;; 316.595; 250.443;  11.367;  -0.366;  -0.607;   9.037;   9.028;   8.913;  -1.490;  -0.058;;;;;;;;;;;;;;;;;;
2006-02-24T21:58:24.652Z;0;3.6670e+00;0;     0.139;   706.244;  17211.371; 0;  17196.875;  17211.371;  17553.623;  16847.379; 21;   9.035;   6.018; 314.954;; 316.726; 250.581;  11.368;  -0.366;  -0.607;   9.035;   9.026;   8.911;  -1.488;  -0.058;;;;;;;;;;;;;;;;;;
2006-02-24T21:58:40.652Z;0;2.9370e+00;0;     0.090;   706.244;  15405.436; 0;  15389.238;  15405.436;  15746.411;  15040.167; 21;   9.033;   6.154; 315.087;; 316.857; 250.719;  11.369;  -0.366;  -0.607;   9.034;   9.024;   8.910;  -1.485;  -0.058;;;;;;;;;;;;;;;;;;
2006-02-24T21:58:56.652Z;0;2.9320e+00;0;     0.092;   706.244;  15393.237; 0;  15377.027;  15393.237;  15734.203;  15027.960; 21;   9.031;   6.289; 315.220;; 316.987; 250.857;  11.370;  -0.366;  -0.607;   9.032;   9.023;   8.909;  -1.482;  -0.058;;;;;;;;;;;;;;;;;;
2006-02-24T21:59:12.652Z;0;3.5950e+00;0;     0.156;   701.736;  17041.055; 0;  17026.600;  17041.055;  17381.082;  16679.348; 21;   9.030;   6.424; 315.353;; 317.118; 250.995;  11.371;  -0.366;  -0.607;   9.030;   9.021;   8.907;  -1.480;  -0.058;;;;;;;;;;;;;;;;;;
2006-02-24T21:59:28.652Z;0;3.6670e+00;0;     0.167;   701.736;  17210.285; 0;  17195.973;  17210.285;  17550.420;  16848.684; 21;   9.028;   6.559; 315.487;; 317.248; 251.133;  11.372;  -0.366;  -0.607;   9.028;   9.019;   8.906;  -1.477;  -0.058;;;;;;;;;;;;;;;;;;
2006-02-24T21:59:44.652Z;0;3.5530e+00;0;     0.160;   701.736;  16941.533; 0;  16926.994;  16941.533;  17281.498;  16579.762; 21;   9.026;   6.694; 315.620;; 317.379; 251.271;  11.373;  -0.366;  -0.607;   9.027;   9.017;   8.905;  -1.475;  -0.058;;;;;;;;;;;;;;;;;;